Flag for U.S.A. Weather past 2 weeks in Victoria, Texas, U.S.A.

Now
67 °F

Mostly cloudy.


Feels Like: 67 °F
Forecast: 51 / 68 °F
Wind: 15 mph from Southeast

Location: Victoria Regional Airport

Current Time: Dec 17, 2014 at 3:56:13 PM

Latest Report: Dec 17, 2014 at 2:51 PM


Visibility: 10 mi

Pressure: 30.04 "Hg

Humidity: 85%

Dew point: 62 °F

Location of VictoriaLocation

Historic Weather in Victoria — Graph

°F

Victoria temperature yesterday

Maximum temperature yesterday: 68 °F (at 1:51 PM)
Minimum temperature yesterday: 52 °F (at 11:51 PM)
Average temperature yesterday: 58 °F

Past Weeks' High & Low Weather Summary

 TemperatureHumidityPressure
High81 °F (Dec 5, 1:51 PM)100% (Dec 5, 12:51 AM)30.37 "Hg (Dec 5, 12:51 AM)
Low44 °F (Dec 9, 5:51 AM)35% (Dec 16, 1:51 PM)29.88 "Hg (Dec 14, 2:51 PM)
Average63 °F80%30.17 "Hg
* Reported Dec 2 1:51 PM — Dec 17 1:51 PM, Victoria, Weather by CustomWeather, © 2014

Note: Actual official high and low records may vary slightly from our data, if they occured in-between our weather recording intervals... More about our weather records

Advertising

Victoria weather history for previous 24 hours

 ConditionsComfort  
Time TempWeatherWind HumidityBarometerVisibility
1:51 PM
Dec 17
67 °FMostly cloudy.12 mph85%30.07 "Hg10 mi
12:59 PM65 °FLight rain. Fog.13 mph87%30.10 "Hg2 mi
11:51 AM65 °FMostly cloudy.16 mph70%30.14 "Hg10 mi
10:51 AM63 °FMostly cloudy.13 mph68%30.17 "Hg10 mi
9:51 AM59 °FOvercast.9 mph69%30.20 "Hg10 mi
8:51 AM57 °FMore clouds than sun.10 mph69%30.20 "Hg10 mi
7:51 AM55 °FMostly cloudy.9 mph67%30.18 "Hg10 mi
6:51 AM54 °FOvercast.9 mph67%30.19 "Hg10 mi
5:51 AM54 °FMostly cloudy.10 mph64%30.18 "Hg10 mi
4:51 AM54 °FOvercast.8 mph64%30.18 "Hg10 mi
3:51 AM54 °FMostly cloudy.12 mph62%30.19 "Hg10 mi
2:51 AM52 °FOvercast.9 mph69%30.20 "Hg10 mi
1:51 AM50 °FPassing clouds.7 mph77%30.22 "Hg10 mi
12:51 AM51 °FClear.3 mph77%30.25 "Hg10 mi
11:51 PM
Dec 16
52 °FPassing clouds.8 mph75%30.25 "Hg10 mi
10:51 PM53 °FPassing clouds.7 mph74%30.27 "Hg10 mi
9:51 PM54 °FPassing clouds.5 mph69%30.29 "Hg10 mi
8:51 PM56 °FOvercast.8 mph62%30.27 "Hg10 mi
7:51 PM55 °FClear.7 mph64%30.24 "Hg10 mi
6:51 PM59 °FOvercast.8 mph56%30.23 "Hg10 mi
5:51 PM62 °FMostly cloudy.3 mph52%30.24 "Hg10 mi
4:51 PM65 °FOvercast.5 mph45%30.22 "Hg10 mi
3:51 PM65 °FOvercast.6 mph40%30.23 "Hg10 mi
Weather by CustomWeather, © 2014

See weather overviewHow to use our weather pages